Pittsburgh, Pennsylvania, United States (15201)
Lat: 40.44N, Lon: 80W
Wx Zone: PAZ021
Local Info
Past Weather Observations for Today

NOTE: This archive is for the closest National Weather Service station to Pittsburgh. Information may differ from the station used for current weather conditions.

Click here for Long-term Archive

Time Weather Temperature Dewpoint Humidity Pressure Winds Precip Visibility
16:53
Overcast
Light Snow
34°F / 1°C 30°F / -1°C 87% 29.77 in
(1008 mb)
Calm 0.00 in
(0.00 mm)
3/4SM
16:28
Overcast
Fog And Mist
34°F / 1°C 30°F / -1°C 87% 29.77 in
(1008 mb)
ENE 3.5 mph
(ENE 6 kph)
- 1SM
16:17
Overcast
Fog And Mist
34°F / 1°C 30°F / -1°C 87% 29.77 in
(1008 mb)
ENE 3.5 mph
(ENE 6 kph)
- 1SM
16:09
Overcast
Fog And Mist
34°F / 1°C 30°F / -1°C 87% 29.77 in
(1008 mb)
ESE 3.5 mph
(ESE 6 kph)
- 1SM
15:53
Overcast
Fog And Mist
34°F / 1°C 30°F / -1°C 87% 29.74 in
(1007 mb)
Calm 0.01 in
(0.25 mm)
3/4SM
14:53
Overcast
Fog And Mist
34°F / 1°C 30°F / -1°C 87% 29.77 in
(1008 mb)
S 3.5 mph
(S 6 kph)
- 1 1/4SM
14:22
Overcast
Fog And Mist
34°F / 1°C 30°F / -1°C 87% 29.77 in
(1008 mb)
Calm - 1 3/4SM
13:53
Overcast
Fog And Mist
36°F / 2°C 30°F / -1°C 81% 29.77 in
(1008 mb)
Calm - 2SM
12:53
Overcast
Fog And Mist
34°F / 1°C 28°F / -2°C 81% 29.77 in
(1008 mb)
SSW 3.5 mph
(SSW 6 kph)
- 2 1/2SM
12:51
Overcast
Fog And Mist
34°F / 1°C 28°F / -2°C 81% 29.77 in
(1008 mb)
Calm - 2 1/2SM
12:17
Overcast
Hazy
36°F / 2°C 28°F / -2°C 75% 29.8 in
(1009 mb)
W 4.6 mph
(W 7 kph)
- 3SM
12:07
Overcast
Hazy
34°F / 1°C 28°F / -2°C 81% 29.8 in
(1009 mb)
SSW 4.6 mph
(SSW 7 kph)
- 3SM
11:53
Overcast
Hazy
36°F / 2°C 28°F / -2°C 75% 29.8 in
(1009 mb)
W 5.8 mph
(W 9 kph)
- 3SM
10:53
Overcast
Hazy
34°F / 1°C 28°F / -2°C 81% 29.8 in
(1009 mb)
SW 6.9 mph
(SW 11 kph)
- 3SM
10:48
Overcast
Hazy
34°F / 1°C 28°F / -2°C 81% 29.8 in
(1009 mb)
SSW 5.8 mph
(SSW 9 kph)
- 3SM
09:53
Overcast
Hazy
34°F / 1°C 28°F / -2°C 81% 29.77 in
(1008 mb)
SW 8.1 mph
(SW 13 kph)
- 3SM
09:13
Overcast
Hazy
34°F / 1°C 28°F / -2°C 81% 29.74 in
(1007 mb)
SW 5.8 mph
(SW 9 kph)
- 3SM
09:00
Overcast
Hazy
34°F / 1°C 28°F / -2°C 81% 29.74 in
(1007 mb)
SW 9.2 mph
(SW 15 kph)
- 3SM
08:53
Overcast
Hazy
34°F / 1°C 28°F / -2°C 81% 29.74 in
(1007 mb)
SW 8.1 mph
(SW 13 kph)
- 3SM
07:53
Overcast
Hazy
34°F / 1°C 28°F / -2°C 81% 29.74 in
(1007 mb)
SW 9.2 mph
(SW 15 kph)
- 3SM
06:53
Overcast
Hazy
34°F / 1°C 28°F / -2°C 81% 29.74 in
(1007 mb)
SSW 8.1 mph
(SSW 13 kph)
- 4SM
06:20
Overcast
Fog And Mist
34°F / 1°C 28°F / -2°C 81% 29.74 in
(1007 mb)
SW 10.4 mph
(SW 17 kph)
- 4SM
06:08
Overcast
Fog And Mist
34°F / 1°C 28°F / -2°C 81% 29.74 in
(1007 mb)
SSW 8.1 mph
(SSW 13 kph)
- 4SM
05:53
Overcast
Fog And Mist
34°F / 1°C 28°F / -2°C 81% 29.74 in
(1007 mb)
SSW 9.2 mph
(SSW 15 kph)
- 4SM
04:53
Overcast
Fog And Mist
34°F / 1°C 28°F / -2°C 81% 29.74 in
(1007 mb)
SSW 11.5 mph
(SSW 19 kph)
- 4SM
03:53
Overcast
Fog And Mist
34°F / 1°C 28°F / -2°C 81% 29.74 in
(1007 mb)
SW 11.5 mph
(SW 19 kph)
- 4SM
03:51
Overcast
Fog And Mist
34°F / 1°C 28°F / -2°C 81% 29.74 in
(1007 mb)
SSW 12.7 mph
(SSW 20 kph)
- 4SM
02:53
Overcast
Fog And Mist
32°F / 0°C 27°F / -3°C 80% 29.71 in
(1006 mb)
SW 12.7 mph
(SW 20 kph)
- 4SM
02:49
Overcast
Fog And Mist
32°F / 0°C 27°F / -3°C 80% 29.71 in
(1006 mb)
SW 15 mph
(SW 24 kph)
- 4SM
02:32
Overcast
Fog And Mist
32°F / 0°C 27°F / -3°C 80% 29.71 in
(1006 mb)
SW 11.5 mph
(SW 19 kph)
- 4SM
02:24
Overcast
Fog And Mist
32°F / 0°C 27°F / -3°C 80% 29.71 in
(1006 mb)
SW 10.4 mph
(SW 17 kph)
- 4SM
01:53
Overcast
Fog And Mist
32°F / 0°C 27°F / -3°C 80% 29.71 in
(1006 mb)
SSW 11.5 mph
(SSW 19 kph)
- 4SM
01:34
Overcast
Fog And Mist
32°F / 0°C 27°F / -3°C 80% 29.71 in
(1006 mb)
SW 12.7 mph
(SW 20 kph)
- 4SM
00:53
Overcast
Fog And Mist
32°F / 0°C 27°F / -3°C 80% 29.68 in
(1005 mb)
SW 12.7 mph
(SW 20 kph)
- 5SM
00:42
Overcast
Fog And Mist
32°F / 0°C 27°F / -3°C 80% 29.68 in
(1005 mb)
SW 13.8 mph
(SW 22 kph)
- 5SM
00:29
Overcast
Fog And Mist
32°F / 0°C 27°F / -3°C 80% 29.68 in
(1005 mb)
SW 12.7 mph
(SW 20 kph)
- 5SM
00:19
Overcast
Fog And Mist
32°F / 0°C 27°F / -3°C 80% 29.68 in
(1005 mb)
SSW 12.7 mph
(SSW 20 kph)
- 5SM
Time Weather Temperature Dewpoint Humidity Pressure Winds Precip Visibility


Weather for websites

WeatherForYou.com, LLC is not responsible for any damages or problems caused by this service. Current weather conditions are obtained from the closest station including government and personal stations which may have varying degrees of accuracy. Weather forecasts are derived from the NOAA NDFD. Like all things, this site belongs to Jesus Christ... He just trusts me to maintain it. If you have any questions or comments email webmaster@weatherforyou.com

Copyright © 2015, WeatherForYou.com LLC. All rights reserved.